Hugo, OK

11:13 PM CDT on May 27, 2017 (GMT -0500)
Stamper Municipal

Weather History for KHHW - June, 2013

Change the Weather History Date:

Wednesday, June 26, 2013

  Actual Average Record
Temperature  
Mean Temperature 89 °F -  
Max Temperature 97 °F 91 °F 97 °F (2013)
Min Temperature 81 °F 69 °F 71 °F (2014)
Cooling Degree Days 24    
Growing Degree Days 39 (Base 50)    
Moisture  
Dew Point 75 °F    
Average Humidity 65    
Maximum Humidity 81    
Minimum Humidity 48    
Precipitation  
Precipitation 0.00 in - - ()
Sea Level Pressure  
Sea Level Pressure 29.91 in    
Wind  
Wind Speed 6 mph (South)    
Max Wind Speed 13 mph    
Max Gust Speed 20 mph    
Visibility 10 miles    
Events      
Averages and records for this station are not official NWS values.
T = Trace of Precipitation, MM = Missing Value Source: NWS Daily Summary

Daily Weather History Graph

Daily Weather History Graph

Search for Another Location

Airport or City:

Trip Planner

Search our weather history database for the weather conditions in past years. The results will help you decide how hot, cold, wet, or windy it might be!

Date:

Astronomy

Jun. 26, 2013 Rise Set
Actual Time 6:12 AM CDT 8:37 PM CDT
Civil Twilight 5:43 AM CDT 9:06 PM CDT
Nautical Twilight 5:07 AM CDT 9:42 PM CDT
Astronomical Twilight 4:28 AM CDT 10:21 PM CDT
Moon 11:13 PM CDT (6/26) 9:54 AM CDT (6/26)
Length of Visible Light 15h 23m
Length of Day
14h 24m
Waning Gibbous, 85% of the Moon is Illuminated
Jun 26
Waning Gibbous
Jun 29
Last Quarter
Jul 8
New
Jul 15
First Quarter
Jul 22
Full

Hourly Weather History & Observations

Time (CDT) Temp. Heat Index Dew Point Humidity Pressure Visibility Wind Dir Wind Speed Gust Speed Precip Events Conditions
12:15 AM 83.8 °F 90.4 °F 73.4 °F 71% 29.89 in 10.0 mi SSE 3.5 mph - N/A   Clear
12:35 AM 83.3 °F 89.6 °F 73.4 °F 72% 29.89 in 10.0 mi SSE 4.6 mph - N/A   Clear
12:55 AM 83.3 °F 89.6 °F 73.4 °F 72% 29.88 in 10.0 mi SSE 4.6 mph - N/A   Clear
1:15 AM 82.9 °F 89.1 °F 73.4 °F 73% 29.88 in 10.0 mi SSE 4.6 mph - N/A   Clear
1:35 AM 82.6 °F 88.6 °F 73.6 °F 74% 29.88 in 10.0 mi SSE 6.9 mph - N/A   Clear
1:55 AM 82.4 °F 88.4 °F 73.8 °F 75% 29.87 in 10.0 mi SSE 5.8 mph - N/A   Clear
2:15 AM 82.4 °F 88.7 °F 74.3 °F 76% 29.87 in 10.0 mi SSE 5.8 mph - N/A   Clear
2:35 AM 82.0 °F 88.1 °F 74.3 °F 77% 29.87 in 10.0 mi SSE 5.8 mph - N/A   Clear
2:55 AM 81.9 °F 88.2 °F 74.7 °F 79% 29.86 in 10.0 mi South 4.6 mph - N/A   Clear
3:15 AM 81.7 °F 88.3 °F 75.2 °F 81% 29.86 in 10.0 mi SSE 4.6 mph - N/A   Clear
3:35 AM 81.7 °F 88.3 °F 75.4 °F 81% 29.86 in 10.0 mi South 4.6 mph - N/A   Clear
3:55 AM 81.9 °F 88.7 °F 75.4 °F 81% 29.86 in 10.0 mi South 5.8 mph - N/A   Clear
4:15 AM 82.4 °F 89.5 °F 75.2 °F 79% 29.87 in 10.0 mi South 5.8 mph - N/A   Clear
4:35 AM 82.6 °F 89.4 °F 74.8 °F 77% 29.87 in 10.0 mi South 4.6 mph - N/A   Clear
4:55 AM 82.4 °F 89.0 °F 74.5 °F 77% 29.88 in 10.0 mi South 8.1 mph - N/A   Clear
5:15 AM 82.4 °F 88.2 °F 73.2 °F 74% 29.89 in 10.0 mi SSW 6.9 mph - N/A   Clear
5:35 AM 82.6 °F 87.6 °F 72.0 °F 70% 29.88 in 10.0 mi SSW 8.1 mph - N/A   Clear
5:55 AM 82.2 °F 86.9 °F 71.4 °F 70% 29.89 in 10.0 mi SSW 8.1 mph - N/A   Clear
6:15 AM 81.9 °F 86.2 °F 71.1 °F 70% 29.91 in 10.0 mi South 5.8 mph - N/A   Clear
6:35 AM 81.5 °F 85.7 °F 71.2 °F 71% 29.92 in 10.0 mi South 4.6 mph - N/A   Clear
6:55 AM 81.3 °F 85.6 °F 71.6 °F 72% 29.93 in 10.0 mi South 3.5 mph - N/A   Clear
7:15 AM 81.5 °F 86.1 °F 72.0 °F 73% 29.94 in 10.0 mi South 4.6 mph - N/A   Clear
7:35 AM 82.0 °F 87.2 °F 72.5 °F 73% 29.95 in 10.0 mi South 4.6 mph - N/A   Clear
7:55 AM 82.6 °F 88.1 °F 72.9 °F 72% 29.96 in 10.0 mi SSW 6.9 mph - N/A   Clear
8:15 AM 82.9 °F 89.1 °F 73.4 °F 73% 29.96 in 10.0 mi South 8.1 mph - N/A   Clear
8:35 AM 83.7 °F 90.7 °F 74.1 °F 73% 29.97 in 10.0 mi SSW 8.1 mph - N/A   Clear
8:55 AM 84.2 °F 91.6 °F 74.5 °F 72% 29.97 in 10.0 mi SSW 10.4 mph - N/A   Clear
9:15 AM 84.4 °F 92.0 °F 74.7 °F 72% 29.98 in 10.0 mi South 9.2 mph 17.3 mph N/A   Scattered Clouds
9:55 AM 86.0 °F 95.1 °F 75.4 °F 70% 29.98 in 10.0 mi South 8.1 mph 16.1 mph N/A   Scattered Clouds
10:15 AM 86.4 °F 95.5 °F 75.2 °F 69% 29.98 in 10.0 mi SSW 11.5 mph 18.4 mph N/A   Scattered Clouds
10:35 AM 87.3 °F 97.7 °F 75.9 °F 69% 29.97 in 10.0 mi SSW 10.4 mph 16.1 mph N/A   Scattered Clouds
10:55 AM 87.6 °F 97.6 °F 75.4 °F 67% 29.96 in 10.0 mi SSW 11.5 mph 18.4 mph N/A   Scattered Clouds
11:15 AM 88.7 °F 99.3 °F 75.4 °F 65% 29.97 in 10.0 mi South 11.5 mph 18.4 mph N/A   Scattered Clouds
11:35 AM 89.6 °F 99.8 °F 74.8 °F 62% 29.97 in 10.0 mi SW 12.7 mph 19.6 mph N/A   Scattered Clouds
11:55 AM 90.5 °F 100.9 °F 74.7 °F 60% 29.97 in 10.0 mi SW 11.5 mph 17.3 mph N/A   Clear
12:15 PM 91.0 °F 102.9 °F 75.7 °F 61% 29.96 in 10.0 mi SSW 10.4 mph 18.4 mph N/A   Clear
12:35 PM 91.6 °F 102.9 °F 75.2 °F 59% 29.96 in 10.0 mi SSW 8.1 mph - N/A   Clear
12:55 PM 92.1 °F 103.0 °F 75.0 °F 57% 29.96 in 10.0 mi SSW 6.9 mph 16.1 mph N/A   Clear
1:15 PM 93.2 °F 105.7 °F 76.1 °F 57% 29.96 in 10.0 mi SSW 9.2 mph - N/A   Clear
1:35 PM 93.2 °F 105.0 °F 75.6 °F 56% 29.95 in 10.0 mi SW 10.4 mph 17.3 mph N/A   Clear
1:55 PM 94.1 °F 105.9 °F 75.4 °F 54% 29.94 in 10.0 mi South 9.2 mph - N/A   Clear
2:15 PM 94.3 °F 107.1 °F 75.7 °F 55% 29.94 in 10.0 mi South 6.9 mph 18.4 mph N/A   Clear
2:35 PM 94.3 °F 106.3 °F 75.2 °F 54% 29.93 in 10.0 mi South 11.5 mph - N/A   Clear
2:55 PM 95.0 °F 106.7 °F 74.7 °F 52% 29.93 in 10.0 mi SW 9.2 mph - N/A   Clear
3:15 PM 95.5 °F 109.6 °F 76.6 °F 54% 29.93 in 10.0 mi South 9.2 mph - N/A   Clear
3:35 PM 96.3 °F 108.3 °F 74.8 °F 50% 29.92 in 10.0 mi SSW 6.9 mph - N/A   Clear
3:55 PM 96.6 °F 110.0 °F 75.7 °F 51% 29.92 in 10.0 mi South 6.9 mph - N/A   Clear
4:15 PM 96.8 °F 108.8 °F 75.0 °F 49% 29.91 in 10.0 mi South 11.5 mph 16.1 mph N/A   Clear
4:35 PM 96.8 °F 108.8 °F 74.8 °F 49% 29.90 in 10.0 mi South 10.4 mph - N/A   Clear
4:55 PM 97.0 °F 108.5 °F 74.3 °F 48% 29.90 in 10.0 mi South 11.5 mph 16.1 mph N/A   Clear
5:15 PM 96.8 °F 108.8 °F 75.0 °F 49% 29.89 in 10.0 mi South 6.9 mph - N/A   Clear
5:35 PM 96.4 °F 108.0 °F 74.5 °F 49% 29.88 in 10.0 mi South 9.2 mph - N/A   Clear
5:55 PM 96.6 °F 109.2 °F 75.2 °F 50% 29.88 in 10.0 mi South 6.9 mph - N/A   Clear
6:15 PM 96.3 °F 108.3 °F 74.8 °F 50% 29.88 in 10.0 mi SSW 5.8 mph - N/A   Clear
6:35 PM 95.9 °F 106.6 °F 73.8 °F 49% 29.88 in 10.0 mi South 6.9 mph - N/A   Clear
6:55 PM 95.4 °F 106.1 °F 73.9 °F 50% 29.88 in 10.0 mi South 4.6 mph - N/A   Clear
7:15 PM 94.8 °F 105.5 °F 74.1 °F 51% 29.88 in 10.0 mi South 4.6 mph - N/A   Clear
7:35 PM 93.7 °F 105.0 °F 74.7 °F 54% 29.87 in 10.0 mi South 3.5 mph - N/A   Clear
7:55 PM 92.7 °F 103.0 °F 74.5 °F 55% 29.87 in 10.0 mi Calm Calm - N/A   Clear
8:15 PM 92.7 °F 103.0 °F 74.5 °F 55% 29.88 in 10.0 mi Calm Calm - N/A   Clear
8:35 PM 90.9 °F 100.6 °F 74.5 °F 58% 29.88 in 10.0 mi ESE 3.5 mph - N/A   Clear
8:55 PM 88.9 °F 99.2 °F 75.4 °F 64% 29.88 in 10.0 mi East 3.5 mph - N/A   Clear
9:15 PM 87.3 °F 97.7 °F 76.1 °F 69% 29.89 in 10.0 mi ESE 4.6 mph - N/A   Clear
9:35 PM 87.1 °F 98.3 °F 76.5 °F 71% 29.90 in 10.0 mi ESE 3.5 mph - N/A   Clear
9:55 PM 86.7 °F 97.3 °F 76.5 °F 71% 29.90 in 10.0 mi Calm Calm - N/A   Clear
10:15 PM 86.9 °F 96.8 °F 75.6 °F 69% 29.90 in 10.0 mi Calm Calm - N/A   Clear
10:35 PM 87.1 °F 96.8 °F 75.4 °F 68% 29.91 in 10.0 mi Calm Calm - N/A   Clear
10:55 PM 86.0 °F 96.0 °F 76.1 °F 72% 29.92 in 10.0 mi Calm Calm - N/A   Clear
11:15 PM 85.8 °F 95.5 °F 75.9 °F 72% 29.92 in 10.0 mi Calm Calm - N/A   Clear
11:35 PM 84.4 °F 93.5 °F 76.1 °F 76% 29.93 in 10.0 mi ENE 3.5 mph - N/A   Clear
11:55 PM 83.5 °F 92.2 °F 76.3 °F 79% 29.93 in 10.0 mi Calm Calm - N/A   Clear